Mammoth, USA 16 day weather forecast

Slopes altitude range 2290 m - 3075m

Number of lifts: 28 Pistes: -1km

In some cases the lift and piste totals shown are for the ski domain (e.g. Three Valleys) rather than individual resort (e.g. Courchevel)

Overview

The 16 day weather forecast is fully updated 4 times every day.

    • Wed 19 DEC 2018
    • Wed 19
    • -1C 0C
    • Thu 20 DEC 2018
    • Thu 20
    • 0C 1C
    • Fri 21 DEC 2018
    • Fri 21
    • -1C 1C
    • Sat 22 DEC 2018
    • Sat 22
    • -1C 0C
    • Sun 23 DEC 2018
    • Sun 23
    • -2C -1C
    • Mon 24 DEC 2018
    • Mon 24
    • -2C 1C
    • Tue 25 DEC 2018
    • Tue 25
    • -7C -5C
    • Wed 26 DEC 2018
    • Wed 26
    • -5C -4C
    • Thu 27 DEC 2018
    • Thu 27
    • -7C -5C
    • Fri 28 DEC 2018
    • Fri 28
    • -11C -9C
    • Sat 29 DEC 2018
    • Sat 29
    • -14C -1C
    • Sun 30 DEC 2018
    • Sun 30
    • -4C 0C
    • Mon 31 DEC 2018
    • Mon 31
    • -4C -1C
    • Tue 01 JAN 2019
    • Tue 01
    • -2C 2C
    • Wed 02 JAN 2019
    • Wed 02
    • -4C 3C
    • Thu 03 JAN 2019
    • Thu 03
    • -4C 0C

Date:

Time Type 0°C level Temp Chill Snow Cloud Speed Gust Dir Press
3:00 2722m 0°C 0_7 0cm 0% 7mph 7mph 1026mB
6:00 2749m -1°C -1_7 0cm 0% 7mph 8mph 1027mB
9:00 2784m -1°C -1_7 0cm 0% 7mph 8mph 1028mB
12:00 2808m 0°C 0_8 0cm 0% 8mph 8mph 1027mB
15:00 2831m 0°C 0_8 0cm 49% 8mph 9mph 1027mB
18:00 4062m 9°C 9_3 0cm 65% 3mph 3mph 1026mB
21:00 4014m 8°C 8_2 0cm 75% 2mph 2mph 1024mB
0:00 3990m 6°C 6_4 0cm 77% 4mph 5mph 1023mB
3:00 2863m 1°C 1_8 0cm 63% 8mph 8mph 1023mB
6:00 2731m 0°C 0_8 0cm 41% 8mph 8mph 1024mB
9:00 2704m 0°C 0_8 0cm 5% 8mph 8mph 1023mB
12:00 2674m 1°C 1_8 0cm 3% 8mph 8mph 1022mB
15:00 2685m 0°C 0_8 0cm 0% 8mph 8mph 1023mB
18:00 3595m 8°C 8_3 0cm 30% 3mph 6mph 1022mB
21:00 3446m 8°C 8_5 0cm 78% 5mph 9mph 1019mB
0:00 3393m 5°C 5_4 0cm 84% 4mph 5mph 1018mB
3:00 3067m 1°C 1_7 0cm 97% 7mph 8mph 1019mB
6:00 2481m 1°C 1_6 0cm 98% 6mph 7mph 1019mB
9:00 2371m 0°C 0_6 0cm 99% 6mph 7mph 1018mB
12:00 2192m 1°C 1_6 1cm 99% 6mph 7mph 1018mB
15:00 2000m -1°C -1_6 0cm 0% 6mph 7mph 1019mB
18:00 2712m 6°C 6_2 0cm 0% 2mph 3mph 1019mB
21:00 2744m 6°C 6_4 0cm 0% 4mph 5mph 1017mB
0:00 2676m 3°C 3_3 0cm 0% 3mph 3mph 1016mB
3:00 2105m -2°C -2_6 0cm 6% 6mph 7mph 1018mB
6:00 2088m -2°C -2_6 0cm 32% 6mph 7mph 1019mB
9:00 2264m -1°C -1_5 0cm 99% 5mph 6mph 1018mB
12:00 2183m 0°C 0_6 0cm 99% 6mph 7mph 1019mB
15:00 2308m -1°C -1_7 0cm 100% 7mph 8mph 1020mB
18:00 3063m 6°C 6_1 0cm 83% 1mph 1mph 1021mB
21:00 3123m 6°C 6_3 0cm 0% 3mph 2mph 1019mB
0:00 3122m 3°C 3_2 0cm 0% 2mph 3mph 1020mB
3:00 2473m 0°C 0_6 0cm 40% 6mph 7mph 1023mB
6:00 2451m -1°C -1_7 0cm 63% 7mph 7mph 1024mB
9:00 2373m -2°C -2_7 0cm 89% 7mph 7mph 1023mB
12:00 2343m -1°C -1_7 0cm 90% 7mph 7mph 1024mB
15:00 2388m -1°C -1_7 0cm 99% 7mph 7mph 1024mB
18:00 2948m 6°C 6_1 0cm 99% 1mph 1mph 1024mB
21:00 2773m 5°C 5_2 1cm 100% 2mph 2mph 1021mB
0:00 2704m 3°C 3_0 1cm 99% 0mph 1mph 1021mB
3:00 2615m 2°C 2_3 1cm 99% 3mph 4mph 1023mB
6:00 2596m 1°C 1_4 1cm 99% 4mph 4mph 1023mB
9:00 2285m -1°C -1_4 0cm 63% 4mph 5mph 1022mB
12:00 2130m 1°C 1_5 0cm 33% 5mph 6mph 1021mB
15:00 2082m -1°C -1_5 0cm 92% 5mph 6mph 1020mB
18:00 2328m 3°C 3_5 1cm 95% 5mph 8mph 1018mB
21:00 2009m -1°C -1_8 6cm 100% 8mph 21mph 1013mB
0:00 2085m -2°C -2_19 24cm 100% 19mph 34mph 1013mB
3:00 1352m -5°C -5_4 3cm 100% 4mph 9mph 1016mB
6:00 1048m -8°C -8_2 5cm 97% 2mph 3mph 1018mB
9:00 1317m -7°C -7_5 7cm 100% 5mph 16mph 1016mB
12:00 1353m -5°C -5_5 12cm 100% 5mph 10mph 1016mB
15:00 1099m -5°C -5_5 1cm 97% 5mph 7mph 1018mB
18:00 1674m -3°C -3_5 1cm 67% 5mph 6mph 1019mB
21:00 1814m -3°C -3_5 1cm 76% 5mph 6mph 1018mB
0:00 1826m -3°C -3_4 1cm 85% 4mph 5mph 1018mB
3:00 1181m -6°C -6_6 0cm 82% 6mph 6mph 1020mB
6:00 845m -8°C -8_6 0cm 41% 6mph 7mph 1021mB
9:00 1545m -5°C -5_6 0cm 0% 6mph 6mph 1021mB
12:00 1543m -4°C -4_6 0cm 12% 6mph 7mph 1020mB
15:00 1686m -3°C -3_8 0cm 70% 8mph 9mph 1020mB
18:00 2266m 0°C 0_9 0cm 60% 9mph 13mph 1016mB
21:00 2279m 0°C 0_17 0cm 89% 17mph 29mph 1012mB
0:00 1930m -2°C -2_9 1cm 81% 9mph 25mph 1011mB
3:00 1530m -5°C -5_5 1cm 98% 5mph 9mph 1012mB
6:00 1422m -5°C -5_9 2cm 97% 9mph 15mph 1013mB
9:00 1199m -7°C -7_11 0cm 42% 11mph 19mph 1014mB
12:00 1168m -5°C -5_11 0cm 47% 11mph 19mph 1015mB
15:00 1069m -7°C -7_7 0cm 12% 7mph 11mph 1017mB
18:00 1418m -5°C -5_5 0cm 16% 5mph 7mph 1016mB
21:00 1886m -5°C -5_6 0cm 6% 6mph 12mph 1012mB
0:00 1688m -5°C -5_12 0cm 3% 12mph 20mph 1012mB
3:00 1098m -8°C -8_14 1cm 30% 14mph 20mph 1016mB
6:00 828m -9°C -9_16 1cm 55% 16mph 22mph 1016mB
9:00 742m -10°C -10_15 1cm 76% 15mph 21mph 1018mB
12:00 510m -9°C -9_12 1cm 60% 12mph 20mph 1019mB
15:00 473m -11°C -11_10 0cm 40% 10mph 18mph 1022mB
18:00 722m -10°C -10_10 0cm 34% 10mph 16mph 1022mB
Morning 0.15625mm 0 358m -15°C -15_6 0cm 16% 6mph 8mph 1027mB
Afternoon 0.385417mm 0 2235m -1°C -1_6 0cm 17% 6mph 7mph 1024mB
Morning 0.333333mm 0 2018m -3°C -3_8 0cm 67% 8mph 9mph 1025mB
Afternoon 0.015625mm 0 2567m 0°C 0_8 0cm 66% 8mph 11mph 1025mB
Morning 0.0260417mm 0 1950m -4°C -4_10 0cm 49% 10mph 11mph 1023mB
Afternoon 0.229167mm 0 2269m -1°C -1_9 2cm 93% 9mph 12mph 1021mB
Morning 0.0572917mm 0 2210m -4°C -4_10 1cm 60% 10mph 14mph 1022mB
Afternoon 0.00520833mm 0 2772m 2°C 2_21 1cm 79% 21mph 34mph 1019mB
Morning 0mm 0.0625 1805m -5°C -5_10 1cm 72% 10mph 11mph 1024mB
Afternoon 0mm 0 2814m 3°C 3_20 0cm 94% 20mph 31mph 1019mB
Morning 0mm 0 2489m 0°C 0_20 0cm 98% 20mph 33mph 1017mB
Afternoon 0.00520833mm 0.125 2269m 0°C 0_28 1cm 71% 28mph 49mph 1010mB

16 day outlook at a glance

Forecast issued: 19/12/2018 03:06:24

Chat

Your comments and questions. In a resort? Let us know what it's like!


Characters left 250

For terms and conditions see Readers Comments on the Cookie and privacy policy page.